NOAA 16 DEB, 41402

Orbit data source: Space-Track

NOAA 16 DEB, 41402 is space debris in SSO originally from a launch on Thu, 21 Sep 2000 UTC launched from the Air Force Western Test Range (AFWTR). Debris objects in space refer to the collection of defunct objects orbiting the Earth. Examples of debris include non-operational satellites, rocket bodies, and fragments generated from explosions, collisions, or faulty payload assembly.

Loading next visibility...
Identifier
41402, 2000-055KF
Orbit
SSO
Country
Flag of USUS
Related business
Manufacturer
Unknown
Mission
Spacecraft
Bus & Motor
Unknown
Mass
Unknown
Launch date (UTC)
2000-09-21 (25 years ago)
Launch vehicle
Unknown
Launch site
Air Force Western Test Range (AFWTR)
Object type
Payload
Rocket body
Debris
Shape & HBR
Unknown shape, 0.1 m
Radar Cross Section
Small (<0.1 m²)

Expand to show TLE details & history
Last TLE update: 2 days ago

TLE from 2 days ago
0 NOAA 16 DEB
1 41402U 00055KF  26036.30273418  .00004217  00000-0  20631-2 0  9994
2 41402  98.6865  68.0632 0029638 263.5517  96.2283 14.18196190513679
Epoch: 2026-02-05T07:15Z
TLE epoch observation values (Epoch: 2026-02-05T07:15:56.233Z)
Latitude
-0.00005°
Longitude
-176.378°
Altitude
836.754 km
Speed
7.433 km/s
True Right ascension
04h 32m 15s
True Declination
0° 00' 00"
Sunlit
Object was in daylight at epoch
Visualization orbit readout
Latitude
Unknown
Longitude
Unknown
Altitude
Unknown
Speed
Unknown
Apparent Right ascension
Unknown
Apparent Declination
Unknown
Sunlit
N/A
Visualization observer readout
Local Sidereal Time
14:03:05
Azimuth
Unknown
Elevation
Unknown
Doppler factor
Unknown
Orbital elements
Apogee altitude
849.979 km
Perigee altitude
807.26 km
Semi-major axis
7,206.756 km
Eccentricity
0.00296
Inclination
98.6865°
RAAN
68.0632°
Arg. of periapsis
263.5517°
True anomaly
96.56578°
Mean anomaly
96.2283°
Eccentric anomaly
96.39706°
Mean motion
3.54759 °/min
Orbital period
101.48 mins
BSTAR
0.0020631
Loading maneuver chart data...
Computing Atmospheric mass density...
Loading historical data...
Loading historical data...
Loading historical data...
Loading historical data...
Loading historical data...
Loading historical data...
Loading historical data...

Documentation

Showing up to 5 results
|